This is the latest recevied weather packets stored in our database for station/object WX4SGA. If no packets are shown the sender has not sent any weather packets the latest 10 day(s).
| Time | Temp. | Humidity | Pressure | Rain* | Wind** | Luminosity | Snow |
|---|---|---|---|---|---|---|---|
| 1787939350 | 30.56° C | 74% | 1017.6 hPa | 0 mm | - | 299 W/m² | - |
| 1787939050 | 30° C | 75% | 1017.6 hPa | 0 mm | - | 327 W/m² | - |
| 1787938749 | 30° C | 76% | 1018 hPa | 0 mm | - | 295 W/m² | - |
| 1787938445 | 30° C | 77% | 1018 hPa | 0 mm | - | 297 W/m² | - |
| 1787938140 | 30° C | 77% | 1018 hPa | 0 mm | - | 299 W/m² | - |
| 1787937835 | 30° C | 76% | 1018 hPa | 0 mm | - | 320 W/m² | - |
| 1787937532 | 30° C | 77% | 1017.6 hPa | 0 mm | - | 362 W/m² | - |
| 1787937228 | 30° C | 77% | 1018 hPa | 0 mm | - | 365 W/m² | - |
| 1787936923 | 30° C | 78% | 1018 hPa | 0 mm | - | 451 W/m² | - |
| 1787936622 | 31.11° C | 76% | 1018 hPa | 0 mm | - | 393 W/m² | - |
| 1787936321 | 30.56° C | 75% | 1018.3 hPa | 0 mm | - | 457 W/m² | - |
| 1787936017 | 30.56° C | 76% | 1018.3 hPa | 0 mm | - | 680 W/m² | - |
| 1787935712 | 29.44° C | 77% | 1018.3 hPa | 0 mm | - | 505 W/m² | - |
| 1787935408 | 29.44° C | 81% | 1018 hPa | 0 mm | - | 345 W/m² | - |
| 1787935104 | 30° C | 80% | 1018.3 hPa | 0 mm | - | 341 W/m² | - |
| 1787934799 | 30° C | 79% | 1018.3 hPa | 0 mm | - | 273 W/m² | - |
| 1787934498 | 29.44° C | 79% | 1018.3 hPa | 0 mm | - | 225 W/m² | - |
| 1787934187 | 29.44° C | 79% | 1018.3 hPa | 0 mm | - | 208 W/m² | - |
| 1787933894 | 29.44° C | 78% | 1018.3 hPa | 0 mm | - | 285 W/m² | - |
| 1787933580 | 29.44° C | 78% | 1018.3 hPa | 0 mm | - | 276 W/m² | - |
| 1787933275 | 29.44° C | 79% | 1018.3 hPa | 0 mm | - | 271 W/m² | - |
| 1787932975 | 29.44° C | 80% | 1018.6 hPa | 0 mm | - | 288 W/m² | - |
| 1787932673 | 29.44° C | 82% | 1018.3 hPa | 0 mm | - | 376 W/m² | - |
| 1787932368 | 28.89° C | 79% | 1018.3 hPa | 0 mm | - | 395 W/m² | - |
| 1787932063 | 28.89° C | 81% | 1018.3 hPa | 0 mm | - | 228 W/m² | - |
* Rain latest hour (hover to see other rain measurements)
** Current wind speed in m/s (hover to see current wind gust speed)